Tracking 33203 objects as of 15-Feb-2026
HD Live streaming from Space Station
objects crossing your sky now

STARLINK-30366

Track STARLINK-30366 now!
10-day predictions
STARLINK-30366 is classified as:


NORAD ID: 57749
Int'l Code: 2023-131T
Perigee: 565.3 km
Apogee: 567.1 km
Inclination: 43.0 °
Period: 95.8 minutes
Semi major axis: 6937 km
RCS: Unknown
Launch date: September 1, 2023
Source: United States (US)
Launch site: AIR FORCE EASTERN TEST RANGE (AFETR)
Your satellite tracking list
Your tracking list is empty




NASA's NSSDC Master Catalog

Two Line Element Set (TLE):
1 57749U 23131T   26046.11615479  .00000672  00000-0  64797-4 0  9996
2 57749  43.0040 294.0094 0001328 265.0399  95.0291 15.02534651136537
Source of the keplerian elements: AFSPC